PWSweather.com
Personal Weather Stations
Station Observations
KVAGLENALL
West Henrico, Glen Allen, VA 23060-6503

West HenricoGlen Allen, VA 23060-6503

Lat: 37.6554, Lon: -77.5693

Elevation: 273

Station Type: Davis Vantage Pro II

www.glenallenweather.com

High Low Average
Temperature 71.5°F21.9°C 48.0°F8.9°C 59.5°F15.3°C
Dew Point 58.1°F14.5°C 45.8°F7.7°C 52.1°F11.2°C
Winds 8.0 mph 12.9 kmh Calm Calm 2.0 mph SW3.2 kmh SW
Wind Gusts 11.1 mph17.9 kmh -- 3.0 mph4.8 kmh
Humidity 97% 42% 79%
Pressure 30.23 in1023.7 mb 30.03 in1016.9 mb -
Precipitation 0.00 in0.0 mm - -
Hour Temp Dew Point Humidity Winds Wind Gusts Pressure Precip Precip Rate Daily Precip Total
12:00 AM 57.2°F14.0°C 54.6°F12.6°C 91% 2.0 mph S3.2 kmh S 2.0 mph3.2 kmh 30.11 in1019.6 mb 0.02 in0.5 mm 0.00 in0.0 mm 0.02 in0.5 mm
12:15 AM 56.9°F13.8°C 54.6°F12.6°C 92% 2.0 mph S3.2 kmh S 3.0 mph4.8 kmh 30.11 in1019.6 mb 0.04 in1.0 mm 0.08 in2.0 mm 0.04 in1.0 mm
12:30 AM 56.7°F13.7°C 54.7°F12.6°C 93% 2.0 mph SSW3.2 kmh SSW 3.0 mph4.8 kmh 30.10 in1019.3 mb 0.04 in1.0 mm 0.00 in0.0 mm 0.04 in1.0 mm
12:45 AM 56.6°F13.7°C 54.9°F12.7°C 94% 1.0 mph S1.6 kmh S 2.0 mph3.2 kmh 30.09 in1019.0 mb 0.06 in1.5 mm 0.08 in2.0 mm 0.06 in1.5 mm
01:00 AM 56.5°F13.6°C 55.1°F12.8°C 95% 2.0 mph SSW3.2 kmh SSW 3.0 mph4.8 kmh 30.09 in1019.0 mb 0.08 in2.0 mm 0.03 in0.8 mm 0.08 in2.0 mm
01:15 AM 56.5°F13.6°C 55.1°F12.8°C 95% 4.0 mph SSW6.4 kmh SSW 4.0 mph6.4 kmh 30.09 in1019.0 mb 0.10 in2.5 mm 0.08 in2.0 mm 0.10 in2.5 mm
01:30 AM 56.4°F13.6°C 55.0°F12.8°C 95% 3.0 mph SW4.8 kmh SW 5.1 mph8.2 kmh 30.08 in1018.6 mb 0.08 in2.0 mm 0.00 in0.0 mm 0.10 in2.5 mm
01:45 AM 56.5°F13.6°C 55.1°F12.8°C 95% 2.0 mph S3.2 kmh S 4.0 mph6.4 kmh 30.08 in1018.6 mb 0.09 in2.3 mm 0.04 in1.0 mm 0.11 in2.8 mm
02:00 AM 56.6°F13.7°C 55.5°F13.1°C 96% Calm Calm -- 30.07 in1018.3 mb 0.04 in1.0 mm 0.00 in0.0 mm 0.11 in2.8 mm
02:15 AM 56.9°F13.8°C 55.8°F13.2°C 96% 1.0 mph S1.6 kmh S 2.0 mph3.2 kmh 30.07 in1018.3 mb 0.05 in1.3 mm 0.04 in1.0 mm 0.12 in3.0 mm
02:30 AM 56.9°F13.8°C 55.8°F13.2°C 96% Calm Calm 3.0 mph4.8 kmh 30.06 in1017.9 mb 0.02 in0.5 mm 0.00 in0.0 mm 0.12 in3.0 mm
02:45 AM 57.0°F13.9°C 55.9°F13.3°C 96% Calm Calm -- 30.06 in1017.9 mb 0.02 in0.5 mm 0.00 in0.0 mm 0.12 in3.0 mm
03:00 AM 57.1°F13.9°C 56.0°F13.3°C 96% 1.0 mph SSE1.6 kmh SSE 2.0 mph3.2 kmh 30.05 in1017.6 mb 0.01 in0.3 mm 0.00 in0.0 mm 0.12 in3.0 mm
03:15 AM 57.2°F14.0°C 56.1°F13.4°C 96% Calm Calm 2.0 mph3.2 kmh 30.05 in1017.6 mb 0.01 in0.3 mm 0.00 in0.0 mm 0.12 in3.0 mm
03:30 AM 57.4°F14.1°C 56.3°F13.5°C 96% Calm Calm 1.0 mph1.6 kmh 30.05 in1017.6 mb 0.00 in0.0 mm 0.00 in0.0 mm 0.12 in3.0 mm
03:45 AM 57.4°F14.1°C 56.3°F13.5°C 96% Calm Calm 1.0 mph1.6 kmh 30.05 in1017.6 mb 0.01 in0.3 mm 0.04 in1.0 mm 0.13 in3.3 mm
04:00 AM 57.5°F14.2°C 56.4°F13.6°C 96% 3.0 mph S4.8 kmh S 4.0 mph6.4 kmh 30.05 in1017.6 mb 0.01 in0.3 mm 0.00 in0.0 mm 0.13 in3.3 mm
04:15 AM 57.5°F14.2°C 56.4°F13.6°C 96% 3.0 mph S4.8 kmh S 6.1 mph9.8 kmh 30.04 in1017.3 mb 0.01 in0.3 mm 0.00 in0.0 mm 0.13 in3.3 mm
04:30 AM 57.3°F14.1°C 56.2°F13.4°C 96% 1.0 mph S1.6 kmh S 2.0 mph3.2 kmh 30.05 in1017.6 mb 0.01 in0.3 mm 0.00 in0.0 mm 0.13 in3.3 mm
04:45 AM 57.3°F14.1°C 56.2°F13.4°C 96% Calm Calm -- 30.06 in1017.9 mb 0.01 in0.3 mm 0.00 in0.0 mm 0.13 in3.3 mm
05:00 AM 57.4°F14.1°C 56.3°F13.5°C 96% 1.0 mph WSW1.6 kmh WSW 2.0 mph3.2 kmh 30.06 in1017.9 mb 0.01 in0.3 mm 0.00 in0.0 mm 0.13 in3.3 mm
05:15 AM 57.4°F14.1°C 56.3°F13.5°C 96% Calm Calm -- 30.06 in1017.9 mb 0.00 in0.0 mm 0.00 in0.0 mm 0.13 in3.3 mm
05:30 AM 57.3°F14.1°C 56.2°F13.4°C 96% Calm Calm -- 30.07 in1018.3 mb 0.00 in0.0 mm 0.00 in0.0 mm 0.13 in3.3 mm
05:45 AM 57.3°F14.1°C 56.2°F13.4°C 96% Calm Calm -- 30.08 in1018.6 mb 0.00 in0.0 mm 0.00 in0.0 mm 0.13 in3.3 mm
06:00 AM 57.3°F14.1°C 56.2°F13.4°C 96% Calm Calm -- 30.07 in1018.3 mb 0.00 in0.0 mm 0.00 in0.0 mm 0.13 in3.3 mm
06:15 AM 57.1°F13.9°C 56.0°F13.3°C 96% Calm Calm -- 30.08 in1018.6 mb 0.00 in0.0 mm 0.00 in0.0 mm 0.13 in3.3 mm
06:30 AM 57.1°F13.9°C 56.0°F13.3°C 96% Calm Calm -- 30.08 in1018.6 mb 0.00 in0.0 mm 0.00 in0.0 mm 0.13 in3.3 mm
06:45 AM 56.9°F13.8°C 55.8°F13.2°C 96% Calm Calm -- 30.07 in1018.3 mb 0.00 in0.0 mm 0.00 in0.0 mm 0.13 in3.3 mm
07:00 AM 56.9°F13.8°C 56.0°F13.3°C 97% Calm Calm -- 30.07 in1018.3 mb 0.00 in0.0 mm 0.00 in0.0 mm 0.13 in3.3 mm
07:15 AM 57.1°F13.9°C 56.2°F13.4°C 97% Calm Calm -- 30.07 in1018.3 mb 0.00 in0.0 mm 0.00 in0.0 mm 0.13 in3.3 mm
07:30 AM 57.1°F13.9°C 56.2°F13.4°C 97% 1.0 mph W1.6 kmh W 1.0 mph1.6 kmh 30.07 in1018.3 mb 0.00 in0.0 mm 0.00 in0.0 mm 0.13 in3.3 mm
07:45 AM 57.4°F14.1°C 56.5°F13.6°C 97% 5.0 mph E8.0 kmh E 6.1 mph9.8 kmh 30.08 in1018.6 mb 0.00 in0.0 mm 0.00 in0.0 mm 0.13 in3.3 mm
08:00 AM 57.4°F14.1°C 56.5°F13.6°C 97% Calm Calm -- 30.08 in1018.6 mb 0.00 in0.0 mm 0.00 in0.0 mm 0.13 in3.3 mm
08:15 AM 57.1°F13.9°C 56.2°F13.4°C 97% 1.0 mph W1.6 kmh W 2.0 mph3.2 kmh 30.08 in1018.6 mb 0.00 in0.0 mm 0.00 in0.0 mm 0.13 in3.3 mm
08:30 AM 57.0°F13.9°C 56.1°F13.4°C 97% 1.0 mph SW1.6 kmh SW 4.0 mph6.4 kmh 30.09 in1019.0 mb 0.00 in0.0 mm 0.00 in0.0 mm 0.13 in3.3 mm
08:45 AM 58.4°F14.7°C 57.6°F14.2°C 97% 1.0 mph SSW1.6 kmh SSW 2.0 mph3.2 kmh 30.09 in1019.0 mb 0.00 in0.0 mm 0.00 in0.0 mm 0.13 in3.3 mm
09:00 AM 59.2°F15.1°C 58.1°F14.5°C 96% Calm Calm -- 30.10 in1019.3 mb 0.00 in0.0 mm 0.00 in0.0 mm 0.13 in3.3 mm
09:15 AM 60.4°F15.8°C 57.8°F14.3°C 91% 2.0 mph SW3.2 kmh SW 3.0 mph4.8 kmh 30.11 in1019.6 mb 0.00 in0.0 mm 0.00 in0.0 mm 0.13 in3.3 mm
09:30 AM 60.7°F15.9°C 57.1°F13.9°C 88% 2.0 mph SW3.2 kmh SW 3.0 mph4.8 kmh 30.11 in1019.6 mb 0.00 in0.0 mm 0.00 in0.0 mm 0.13 in3.3 mm
09:45 AM 60.5°F15.8°C 57.3°F14.1°C 89% Calm Calm 2.0 mph3.2 kmh 30.12 in1020.0 mb 0.00 in0.0 mm 0.00 in0.0 mm 0.13 in3.3 mm
10:00 AM 60.0°F15.6°C 57.1°F13.9°C 90% 1.0 mph W1.6 kmh W 4.0 mph6.4 kmh 30.12 in1020.0 mb 0.00 in0.0 mm 0.00 in0.0 mm 0.13 in3.3 mm
10:15 AM 59.8°F15.4°C 56.9°F13.8°C 90% 2.0 mph WSW3.2 kmh WSW 2.0 mph3.2 kmh 30.12 in1020.0 mb 0.00 in0.0 mm 0.00 in0.0 mm 0.13 in3.3 mm
10:30 AM 60.5°F15.8°C 56.9°F13.8°C 88% 3.0 mph N4.8 kmh N 4.0 mph6.4 kmh 30.12 in1020.0 mb 0.00 in0.0 mm 0.00 in0.0 mm 0.13 in3.3 mm
10:45 AM 61.5°F16.4°C 55.6°F13.1°C 81% Calm Calm 2.0 mph3.2 kmh 30.12 in1020.0 mb 0.00 in0.0 mm 0.00 in0.0 mm 0.13 in3.3 mm
11:00 AM 62.9°F17.2°C 54.1°F12.3°C 73% 4.0 mph WNW6.4 kmh WNW 5.1 mph8.2 kmh 30.12 in1020.0 mb 0.00 in0.0 mm 0.00 in0.0 mm 0.13 in3.3 mm
11:15 AM 64.4°F18.0°C 53.2°F11.8°C 67% 4.0 mph WNW6.4 kmh WNW 6.1 mph9.8 kmh 30.12 in1020.0 mb 0.00 in0.0 mm 0.00 in0.0 mm 0.13 in3.3 mm
11:30 AM 66.2°F19.0°C 53.3°F11.8°C 63% 4.0 mph WSW6.4 kmh WSW 8.1 mph13.0 kmh 30.11 in1019.6 mb 0.00 in0.0 mm 0.00 in0.0 mm 0.13 in3.3 mm
11:45 AM 67.2°F19.6°C 51.5°F10.8°C 57% 2.0 mph ENE3.2 kmh ENE 7.1 mph11.4 kmh 30.12 in1020.0 mb 0.00 in0.0 mm 0.00 in0.0 mm 0.13 in3.3 mm
12:00 PM 67.6°F19.8°C 49.4°F9.7°C 52% 7.0 mph NNE11.3 kmh NNE 11.1 mph17.9 kmh 30.11 in1019.6 mb 0.00 in0.0 mm 0.00 in0.0 mm 0.13 in3.3 mm
12:15 PM 69.5°F20.8°C 51.6°F10.9°C 53% 1.0 mph WSW1.6 kmh WSW 2.0 mph3.2 kmh 30.10 in1019.3 mb 0.00 in0.0 mm 0.00 in0.0 mm 0.13 in3.3 mm
12:30 PM 69.1°F20.6°C 49.2°F9.6°C 49% 4.0 mph SW6.4 kmh SW 7.1 mph11.4 kmh 30.10 in1019.3 mb 0.00 in0.0 mm 0.00 in0.0 mm 0.13 in3.3 mm
12:45 PM 69.1°F20.6°C 46.9°F8.3°C 45% 5.0 mph S8.0 kmh S 5.1 mph8.2 kmh 30.10 in1019.3 mb 0.00 in0.0 mm 0.00 in0.0 mm 0.13 in3.3 mm
01:00 PM 69.1°F20.6°C 47.5°F8.6°C 46% 1.0 mph SW1.6 kmh SW 4.0 mph6.4 kmh 30.09 in1019.0 mb 0.00 in0.0 mm 0.00 in0.0 mm 0.13 in3.3 mm
01:15 PM 69.7°F20.9°C 46.8°F8.2°C 44% 4.0 mph SSW6.4 kmh SSW 6.1 mph9.8 kmh 30.08 in1018.6 mb 0.00 in0.0 mm 0.00 in0.0 mm 0.13 in3.3 mm
01:30 PM 70.0°F21.1°C 52.1°F11.2°C 53% 2.0 mph WSW3.2 kmh WSW 5.1 mph8.2 kmh 30.07 in1018.3 mb 0.00 in0.0 mm 0.00 in0.0 mm 0.13 in3.3 mm
01:45 PM 70.1°F21.2°C 49.5°F9.7°C 48% 2.0 mph WSW3.2 kmh WSW 6.1 mph9.8 kmh 30.05 in1017.6 mb 0.00 in0.0 mm 0.00 in0.0 mm 0.13 in3.3 mm
02:00 PM 70.8°F21.6°C 49.0°F9.4°C 46% 4.0 mph SSW6.4 kmh SSW 7.1 mph11.4 kmh 30.04 in1017.3 mb 0.00 in0.0 mm 0.00 in0.0 mm 0.13 in3.3 mm
02:15 PM 71.5°F21.9°C 49.6°F9.8°C 46% 6.0 mph SW9.7 kmh SW 9.1 mph14.6 kmh 30.04 in1017.3 mb 0.00 in0.0 mm 0.00 in0.0 mm 0.13 in3.3 mm
02:30 PM 71.0°F21.7°C 47.4°F8.6°C 43% 1.0 mph SW1.6 kmh SW 8.1 mph13.0 kmh 30.04 in1017.3 mb 0.00 in0.0 mm 0.00 in0.0 mm 0.13 in3.3 mm
02:45 PM 71.3°F21.8°C 47.0°F8.3°C 42% 4.0 mph WSW6.4 kmh WSW 6.1 mph9.8 kmh 30.03 in1016.9 mb 0.00 in0.0 mm 0.00 in0.0 mm 0.13 in3.3 mm
03:00 PM 70.9°F21.6°C 49.1°F9.5°C 46% 1.0 mph N1.6 kmh N 6.1 mph9.8 kmh 30.04 in1017.3 mb 0.00 in0.0 mm 0.00 in0.0 mm 0.13 in3.3 mm
03:15 PM 70.7°F21.5°C 47.7°F8.7°C 44% 5.0 mph SW8.0 kmh SW 7.1 mph11.4 kmh 30.04 in1017.3 mb 0.00 in0.0 mm 0.00 in0.0 mm 0.13 in3.3 mm
03:30 PM 69.8°F21.0°C 46.9°F8.3°C 44% 2.0 mph W3.2 kmh W 4.0 mph6.4 kmh 30.04 in1017.3 mb 0.00 in0.0 mm 0.00 in0.0 mm 0.13 in3.3 mm
03:45 PM 69.2°F20.7°C 47.0°F8.3°C 45% 4.0 mph WSW6.4 kmh WSW 7.1 mph11.4 kmh 30.04 in1017.3 mb 0.00 in0.0 mm 0.00 in0.0 mm 0.13 in3.3 mm
04:00 PM 68.8°F20.4°C 50.0°F10.0°C 51% 1.0 mph WNW1.6 kmh WNW 3.0 mph4.8 kmh 30.04 in1017.3 mb 0.00 in0.0 mm 0.00 in0.0 mm 0.13 in3.3 mm
04:15 PM 68.3°F20.2°C 49.0°F9.4°C 50% 8.0 mph NNE12.9 kmh NNE 8.1 mph13.0 kmh 30.04 in1017.3 mb 0.00 in0.0 mm 0.00 in0.0 mm 0.13 in3.3 mm
04:30 PM 67.8°F19.9°C 49.1°F9.5°C 51% 2.0 mph SSW3.2 kmh SSW 5.1 mph8.2 kmh 30.04 in1017.3 mb 0.00 in0.0 mm 0.00 in0.0 mm 0.13 in3.3 mm
04:45 PM 67.2°F19.6°C 48.0°F8.9°C 50% 5.0 mph WSW8.0 kmh WSW 5.1 mph8.2 kmh 30.04 in1017.3 mb 0.00 in0.0 mm 0.00 in0.0 mm 0.13 in3.3 mm
05:00 PM 65.8°F18.8°C 48.7°F9.3°C 54% 1.0 mph SSW1.6 kmh SSW 6.1 mph9.8 kmh 30.05 in1017.6 mb 0.00 in0.0 mm 0.00 in0.0 mm 0.13 in3.3 mm
05:15 PM 65.2°F18.4°C 48.2°F9.0°C 54% 3.0 mph SW4.8 kmh SW 8.1 mph13.0 kmh 30.05 in1017.6 mb 0.00 in0.0 mm 0.00 in0.0 mm 0.13 in3.3 mm
05:30 PM 64.6°F18.1°C 49.1°F9.5°C 57% 4.0 mph WSW6.4 kmh WSW 6.1 mph9.8 kmh 30.04 in1017.3 mb 0.00 in0.0 mm 0.00 in0.0 mm 0.13 in3.3 mm
05:45 PM 63.2°F17.3°C 49.6°F9.8°C 61% 2.0 mph SW3.2 kmh SW 5.1 mph8.2 kmh 30.05 in1017.6 mb 0.00 in0.0 mm 0.00 in0.0 mm 0.13 in3.3 mm
06:00 PM 62.3°F16.8°C 50.4°F10.2°C 65% 1.0 mph SW1.6 kmh SW 3.0 mph4.8 kmh 30.05 in1017.6 mb 0.00 in0.0 mm 0.00 in0.0 mm 0.13 in3.3 mm
06:15 PM 61.1°F16.2°C 50.9°F10.5°C 69% Calm Calm -- 30.06 in1017.9 mb 0.00 in0.0 mm 0.00 in0.0 mm 0.13 in3.3 mm
06:30 PM 59.9°F15.5°C 50.1°F10.1°C 70% Calm Calm 1.0 mph1.6 kmh 30.06 in1017.9 mb 0.00 in0.0 mm 0.00 in0.0 mm 0.13 in3.3 mm
06:45 PM 59.0°F15.0°C 50.7°F10.4°C 74% 1.0 mph W1.6 kmh W 1.0 mph1.6 kmh 30.07 in1018.3 mb 0.00 in0.0 mm 0.00 in0.0 mm 0.13 in3.3 mm
07:00 PM 58.3°F14.6°C 51.5°F10.8°C 78% 2.0 mph WSW3.2 kmh WSW 3.0 mph4.8 kmh 30.08 in1018.6 mb 0.00 in0.0 mm 0.00 in0.0 mm 0.13 in3.3 mm
07:15 PM 57.1°F13.9°C 51.0°F10.6°C 80% 3.0 mph NW4.8 kmh NW 3.0 mph4.8 kmh 30.08 in1018.6 mb 0.00 in0.0 mm 0.00 in0.0 mm 0.13 in3.3 mm
07:30 PM 56.7°F13.7°C 51.3°F10.7°C 82% Calm Calm 1.0 mph1.6 kmh 30.10 in1019.3 mb 0.00 in0.0 mm 0.00 in0.0 mm 0.13 in3.3 mm
07:45 PM 56.2°F13.4°C 50.1°F10.1°C 80% Calm Calm 1.0 mph1.6 kmh 30.10 in1019.3 mb 0.00 in0.0 mm 0.00 in0.0 mm 0.13 in3.3 mm
08:00 PM 55.5°F13.1°C 49.8°F9.9°C 81% 1.0 mph SW1.6 kmh SW 2.0 mph3.2 kmh 30.10 in1019.3 mb 0.00 in0.0 mm 0.00 in0.0 mm 0.13 in3.3 mm
08:15 PM 55.1°F12.8°C 50.0°F10.0°C 83% Calm Calm -- 30.11 in1019.6 mb 0.00 in0.0 mm 0.00 in0.0 mm 0.13 in3.3 mm
08:30 PM 54.3°F12.4°C 49.9°F9.9°C 85% Calm Calm -- 30.12 in1020.0 mb 0.00 in0.0 mm 0.00 in0.0 mm 0.13 in3.3 mm
08:45 PM 53.9°F12.2°C 49.8°F9.9°C 86% Calm Calm 2.0 mph3.2 kmh 30.12 in1020.0 mb 0.00 in0.0 mm 0.00 in0.0 mm 0.13 in3.3 mm
09:00 PM 53.4°F11.9°C 49.6°F9.8°C 87% 2.0 mph SW3.2 kmh SW 2.0 mph3.2 kmh 30.13 in1020.3 mb 0.00 in0.0 mm 0.00 in0.0 mm 0.13 in3.3 mm
09:15 PM 52.8°F11.6°C 49.6°F9.8°C 89% Calm Calm 1.0 mph1.6 kmh 30.14 in1020.7 mb 0.00 in0.0 mm 0.00 in0.0 mm 0.13 in3.3 mm
09:30 PM 52.3°F11.3°C 49.1°F9.5°C 89% Calm Calm -- 30.16 in1021.3 mb 0.00 in0.0 mm 0.00 in0.0 mm 0.13 in3.3 mm
09:45 PM 51.9°F11.1°C 48.4°F9.1°C 88% Calm Calm -- 30.17 in1021.7 mb 0.00 in0.0 mm 0.00 in0.0 mm 0.13 in3.3 mm
10:00 PM 51.6°F10.9°C 48.1°F8.9°C 88% Calm Calm -- 30.17 in1021.7 mb 0.00 in0.0 mm 0.00 in0.0 mm 0.13 in3.3 mm
10:15 PM 51.3°F10.7°C 48.1°F8.9°C 89% Calm Calm -- 30.18 in1022.0 mb 0.00 in0.0 mm 0.00 in0.0 mm 0.13 in3.3 mm
10:30 PM 50.9°F10.5°C 48.0°F8.9°C 90% Calm Calm -- 30.19 in1022.4 mb 0.00 in0.0 mm 0.00 in0.0 mm 0.13 in3.3 mm
10:45 PM 50.4°F10.2°C 48.1°F8.9°C 92% Calm Calm -- 30.20 in1022.7 mb 0.00 in0.0 mm 0.00 in0.0 mm 0.13 in3.3 mm
11:00 PM 50.0°F10.0°C 47.7°F8.7°C 92% Calm Calm -- 30.20 in1022.7 mb 0.00 in0.0 mm 0.00 in0.0 mm 0.13 in3.3 mm
11:15 PM 49.6°F9.8°C 47.0°F8.3°C 91% Calm Calm -- 30.21 in1023.0 mb 0.00 in0.0 mm 0.00 in0.0 mm 0.13 in3.3 mm
11:30 PM 49.1°F9.5°C 47.2°F8.4°C 93% Calm Calm -- 30.21 in1023.0 mb 0.00 in0.0 mm 0.00 in0.0 mm 0.13 in3.3 mm
11:45 PM 49.1°F9.5°C 47.2°F8.4°C 93% Calm Calm -- 30.22 in1023.4 mb 0.00 in0.0 mm 0.00 in0.0 mm 0.13 in3.3 mm